Location: Beaurecueil
(43.5122°N, 5.5450°E)
Time: 01:07:42
(UTC+00:00)

USA 234 - Pass Details

Date: 18 September 2020
Orbit: 1102 x 1106 km, 123.0° (Epoch: 16 October)

Event Time Altitude Azimuth Distance (km) Brightness Sun altitude
Rises 18:35:01 0° 55° (NE) 3,926 5.8 -10.4°
Reaches altitude 10° 18:37:47 10° 64° (ENE) 2,965 5.1 -10.9°
Maximum altitude 18:43:39 35° 128° (SE) 1,715 3.8 -11.9°
Drops below altitude 10° 18:49:30 10° 192° (SSW) 2,954 5.5 -12.9°
Sets 18:52:14 0° 201° (SSW) 3,909 6.2 -13.4°
